Tracking 18945 objects as of 19-Jan-2018
HD Live streaming from Space Station
objects crossing your sky now

FENGYUN 1C DEB

Track FENGYUN 1C DEB now!
10-day predictions


NORAD ID: 29890
Int'l Code: 1999-025GL
Perigee: 843.4 km
Apogee: 870.8 km
Inclination: 99.5 °
Period: 101.9 minutes
Semi major axis: 7228 km
RCS: 0.052 m2 (small)
Launch date: May 10, 1999
Source: People's Republic of China (PRC)
Launch site: Taiyaun Space Center, China (TSC)

Note: This is SATELLITE DEBRIS
aabbcc
Your satellite tracking list
Your tracking list is empty




NASA's NSSDC Master Catalog

Two Line Element Set (TLE):
1 29890U 99025GL  18018.67970210  .00000528  00000-0  31052-3 0  9992
2 29890  99.4659 278.7347 0018986 210.5049 149.5018 14.12751372566360
Source of the keplerian elements: AFSPC